GW2092 Weather Reports


time (UTC)temp
C
wind
direction
speed
KPH
gust
KPH
rain 1hr
cm
rain 24hr
cm
rain mn
cm
humidity
%
barometer
mb
20260902060054 26 210 0.0 3.2 0.00 0.00 0.00 66 1017.2
20260902054553 27 0 0.0 1.6 0.00 0.00 0.00 65 1016.9
20260902053047 27 129 0.0 3.2 0.00 0.00 0.00 64 1017.0
20260902051544 27 155 0.0 3.2 0.00 0.00 0.00 63 1016.9
20260902050046 27 0 0.0 1.6 0.00 0.00 0.00 63 1016.9
20260902044550 27 0 0.0 3.2 0.00 0.00 0.00 62 1017.0
20260902043051 27 0 0.0 1.6 0.00 0.00 0.00 62 1017.0
20260902041607 27 0 0.0 0.0 0.00 0.00 0.00 61 1017.0
20260902040054 27 0 0.0 1.6 0.00 0.00 0.00 60 1017.1
20260902034550 27 0 0.0 1.6 0.00 0.00 0.00 59 1017.0
20260902033044 28 0 0.0 1.6 0.00 0.00 0.00 59 1017.0
20260902031614 28 0 0.0 1.6 0.00 0.00 0.00 59 1016.8
20260902030056 27 0 0.0 1.6 0.00 0.00 0.00 59 1016.5
20260902024553 27 0 0.0 0.0 0.00 0.00 0.00 60 1016.3
20260902023102 27 0 0.0 0.0 0.00 0.00 0.00 61 1016.0
20260902021549 27 0 0.0 0.0 0.00 0.00 0.00 61 1015.8
20260902020047 27 0 0.0 0.0 0.00 0.00 0.00 60 1015.3
20260902014544 28 0 0.0 0.0 0.00 0.00 0.00 58 1015.1
20260902013043 28 0 0.0 0.0 0.00 0.00 0.00 56 1015.1
20260902011550 30 0 0.0 0.0 0.00 0.00 0.00 54 1015.1
20260902010045 30 0 0.0 0.0 0.00 0.00 0.00 52 1015.2
20260902004555 32 0 0.0 0.0 0.00 0.00 0.00 49 1015.1
20260902003052 32 0 0.0 1.6 0.00 0.00 0.00 47 1015.3
20260902001556 33 0 0.0 0.0 0.00 0.00 0.00 45 1015.4
20260902000043 34 0 0.0 1.6 0.00 0.00 0.00 44 1015.5
20260901234544 34 0 0.0 3.2 0.00 0.00 0.00 42 1015.5
20260901233059 35 0 0.0 4.8 0.00 0.00 0.00 41 1015.7
20260901231544 36 0 0.0 4.8 0.00 0.00 0.00 39 1015.7
20260901230125 36 0 0.0 1.6 0.00 0.00 0.00 37 1015.8
20260901224552 37 139 1.6 4.8 0.00 0.00 0.00 36 1015.7
20260901223054 38 0 0.0 6.4 0.00 0.00 0.00 36 1015.7
20260901221554 38 0 0.0 4.8 0.00 0.00 0.00 35 1015.6
20260901220047 37 146 0.0 8.0 0.00 0.00 0.00 37 1015.8
20260901214550 39 245 1.6 8.0 0.00 0.00 0.00 34 1015.8
20260901213110 39 0 0.0 6.4 0.00 0.00 0.00 32 1015.8
20260901211550 39 153 1.6 9.7 0.00 0.00 0.00 33 1015.8
20260901210045 39 0 0.0 9.7 0.00 0.00 0.00 34 1016.1
20260901204552 38 0 0.0 6.4 0.00 0.00 0.00 36 1016.2
20260901203115 37 321 0.0 1.6 0.00 0.00 0.00 38 1016.5
20260901201550 38 0 0.0 3.2 0.00 0.00 0.00 36 1016.7
20260901200053 38 0 0.0 0.0 0.00 0.00 0.00 37 1016.8
20260901194602 39 0 1.6 9.7 0.00 0.00 0.00 35 1017.1
20260901193044 38 0 1.6 6.4 0.00 0.00 0.00 37 1017.2
20260901191556 38 68 0.0 3.2 0.00 0.00 0.00 37 1017.4
20260901190049 37 120 0.0 4.8 0.00 0.00 0.00 40 1017.6
20260901184544 37 0 0.0 3.2 0.00 0.00 0.00 37 1017.6
20260901183052 37 0 0.0 8.0 0.00 0.00 0.00 39 1017.8
20260901181551 37 252 0.0 3.2 0.00 0.00 0.00 39 1018.1
20260901180050 36 0 0.0 1.6 0.00 0.00 0.00 41 1018.3
20260901174547 37 207 0.0 3.2 0.00 0.00 0.00 40 1018.5
20260901173054 37 158 1.6 11.3 0.00 0.00 0.00 40 1018.7
20260901171551 37 148 0.0 6.4 0.00 0.00 0.00 43 1018.8
20260901170047 36 222 0.0 8.0 0.00 0.00 0.00 44 1018.9
20260901164557 36 0 0.0 9.7 0.00 0.00 0.00 45 1019.1
20260901163050 36 182 0.0 4.8 0.00 0.00 0.00 47 1019.4
20260901161550 35 160 0.0 4.8 0.00 0.00 0.00 49 1019.4
20260901160058 34 199 1.6 8.0 0.00 0.00 0.00 51 1019.5
20260901154547 33 0 0.0 6.4 0.00 0.00 0.00 52 1019.5
20260901153049 33 73 0.0 8.0 0.00 0.00 0.00 53 1019.6
20260901151554 32 195 3.2 11.3 0.00 0.00 0.00 54 1019.8
20260901150049 32 134 0.0 8.0 0.00 0.00 0.00 55 1019.8
20260901144546 32 214 0.0 9.7 0.00 0.00 0.00 56 1019.7
20260901143055 31 122 1.6 11.3 0.00 0.00 0.00 58 1019.8
20260901141553 30 161 0.0 4.8 0.00 0.00 0.00 60 1019.9
20260901140048 28 214 1.6 9.7 0.00 0.00 0.00 63 1019.8
20260901134545 27 191 0.0 4.8 0.00 0.00 0.00 66 1019.9
20260901133043 26 0 0.0 3.2 0.00 0.00 0.00 69 1019.8
20260901131547 25 0 0.0 1.6 0.00 0.00 0.00 71 1019.5
20260901130047 24 0 0.0 0.0 0.00 0.00 0.00 74 1019.4
20260901124555 23 0 0.0 0.0 0.00 0.00 0.00 75 1019.1
20260901123052 23 0 0.0 0.0 0.00 0.00 0.00 76 1019.1
20260901121547 22 0 0.0 0.0 0.00 0.00 0.00 77 1018.9
20260901120056 22 0 0.0 0.0 0.00 0.00 0.00 76 1018.6
20260901114553 23 0 0.0 0.0 0.00 0.00 0.00 74 1018.5
20260901113050 23 0 0.0 0.0 0.00 0.00 0.00 75 1018.5
20260901111556 23 0 0.0 0.0 0.00 0.00 0.00 74 1018.5
20260901110046 23 0 0.0 0.0 0.00 0.00 0.00 73 1018.4
20260901104551 23 0 0.0 0.0 0.00 0.00 0.00 72 1018.4
20260901103049 24 0 0.0 0.0 0.00 0.00 0.00 71 1018.2
20260901101606 24 0 0.0 0.0 0.00 0.00 0.00 70 1018.2
20260901100053 24 0 0.0 0.0 0.00 0.00 0.00 70 1018.2
20260901094549 24 0 0.0 0.0 0.00 0.00 0.00 69 1018.2
20260901093048 24 0 0.0 0.0 0.00 0.00 0.00 69 1018.1
20260901091610 24 0 0.0 0.0 0.00 0.00 0.00 69 1018.0
20260901090055 24 0 0.0 0.0 0.00 0.00 0.00 69 1018.0
20260901084548 24 0 0.0 0.0 0.00 0.00 0.00 68 1017.9
20260901083057 24 0 0.0 0.0 0.00 0.00 0.00 68 1017.8
20260901081555 24 0 0.0 0.0 0.00 0.00 0.00 68 1017.7
20260901080100 24 0 0.0 0.0 0.00 0.00 0.00 67 1017.7
20260901074551 24 0 0.0 0.0 0.00 0.00 0.00 66 1017.5
20260901073048 25 0 0.0 0.0 0.00 0.00 0.00 65 1017.6
20260901071554 25 0 0.0 0.0 0.00 0.00 0.00 65 1017.6
20260901070056 25 0 0.0 3.2 0.00 0.00 0.00 65 1017.6
20260901064548 25 0 0.0 0.0 0.00 0.00 0.00 64 1017.7
20260901063117 25 0 0.0 0.0 0.00 0.00 0.00 64 1017.6
20260901061554 25 0 0.0 0.0 0.00 0.00 0.00 64 1017.5